Time,TemperatureF,DewpointF,PressureIn,WindDirection,WindDirectionDegrees,WindSpeedMPH,WindSpeedGustMPH,Humidity,HourlyPrecipIn,Conditions,Clouds,dailyrainin,SoftwareType,DateUTC
2013-01-16 00:03:00,32.5,21.7,30.23,NNE,28,0.0,15.0,64,0.00,,,0.00,Wunderground v.1.15,2013-01-16 05:03:00,
2013-01-16 00:05:00,32.5,21.7,30.23,NNE,28,0.0,15.0,64,0.00,,,0.00,Wunderground v.1.15,2013-01-16 05:05:00,
2013-01-16 00:09:00,32.5,21.3,30.23,North,10,0.0,15.0,63,0.00,,,0.00,Wunderground v.1.15,2013-01-16 05:09:00,
2013-01-16 00:13:00,32.5,20.9,30.23,NNW,334,0.0,15.0,62,0.00,,,0.00,Wunderground v.1.15,2013-01-16 05:13:00,
2013-01-16 00:19:00,32.5,20.9,30.23,NW,319,1.0,1.0,62,0.00,,,0.00,Wunderground v.1.15,2013-01-16 05:19:00,
2013-01-16 00:25:00,32.5,20.9,30.23,NW,319,0.0,15.0,62,0.00,,,0.00,Wunderground v.1.15,2013-01-16 05:25:00,
2013-01-16 00:31:00,32.5,20.9,30.22,NNW,338,0.0,15.0,62,0.00,,,0.00,Wunderground v.1.15,2013-01-16 05:31:00,
2013-01-16 00:37:00,32.5,20.5,30.22,North,350,0.0,15.0,61,0.00,,,0.00,Wunderground v.1.15,2013-01-16 05:37:00,
2013-01-16 00:43:00,32.5,20.5,30.22,North,350,0.0,15.0,61,0.00,,,0.00,Wunderground v.1.15,2013-01-16 05:43:00,
2013-01-16 00:49:00,32.5,20.5,30.22,North,350,0.0,15.0,61,0.00,,,0.00,Wunderground v.1.15,2013-01-16 05:49:00,
2013-01-16 00:55:00,32.5,20.5,30.22,North,350,0.0,15.0,61,0.00,,,0.00,Wunderground v.1.15,2013-01-16 05:55:00,
2013-01-16 01:01:00,32.5,20.5,30.22,North,350,0.0,15.0,61,0.00,,,0.00,Wunderground v.1.15,2013-01-16 06:01:00,
2013-01-16 01:07:00,32.5,20.9,30.21,North,350,0.0,15.0,62,0.00,,,0.00,Wunderground v.1.15,2013-01-16 06:07:00,
2013-01-16 01:13:00,32.5,20.9,30.21,North,350,0.0,15.0,62,0.00,,,0.00,Wunderground v.1.15,2013-01-16 06:13:00,
2013-01-16 01:19:00,32.4,20.8,30.20,North,350,0.0,15.0,62,0.00,,,0.00,Wunderground v.1.15,2013-01-16 06:19:00,
2013-01-16 01:25:00,32.4,21.2,30.21,North,350,0.0,15.0,63,0.00,,,0.00,Wunderground v.1.15,2013-01-16 06:25:00,
2013-01-16 01:31:00,32.2,22.5,30.21,ENE,58,1.0,15.0,67,0.00,,,0.00,Wunderground v.1.15,2013-01-16 06:31:00,
2013-01-16 01:37:00,31.9,23.6,30.21,NNE,28,2.0,15.0,71,0.00,,,0.00,Wunderground v.1.15,2013-01-16 06:37:00,
2013-01-16 01:43:00,31.6,23.9,30.21,NE,46,0.0,15.0,73,0.00,,,0.00,Wunderground v.1.15,2013-01-16 06:43:00,
2013-01-16 01:49:00,31.5,24.5,30.21,NE,46,0.0,15.0,75,0.00,,,0.00,Wunderground v.1.15,2013-01-16 06:49:00,
2013-01-16 01:55:00,31.3,24.6,30.20,NE,46,0.0,15.0,76,0.00,,,0.00,Wunderground v.1.15,2013-01-16 06:55:00,
2013-01-16 02:01:00,31.0,24.9,30.19,NE,46,0.0,15.0,78,0.00,,,0.00,Wunderground v.1.15,2013-01-16 07:01:00,
2013-01-16 02:07:00,30.7,25.0,30.19,NE,46,0.0,15.0,79,0.00,,,0.00,Wunderground v.1.15,2013-01-16 07:07:00,
2013-01-16 02:13:00,30.6,24.9,30.20,NE,46,0.0,15.0,79,0.00,,,0.00,Wunderground v.1.15,2013-01-16 07:13:00,
2013-01-16 02:19:00,30.4,25.0,30.20,NE,46,0.0,15.0,80,0.00,,,0.00,Wunderground v.1.15,2013-01-16 07:19:00,
2013-01-16 02:25:00,30.3,25.2,30.19,NE,46,0.0,15.0,81,0.00,,,0.00,Wunderground v.1.15,2013-01-16 07:25:00,
2013-01-16 02:31:00,30.1,25.3,30.20,NE,51,0.0,15.0,82,0.00,,,0.00,Wunderground v.1.15,2013-01-16 07:31:00,
2013-01-16 02:37:00,30.0,25.2,30.21,NE,51,0.0,15.0,82,0.00,,,0.00,Wunderground v.1.15,2013-01-16 07:37:00,
2013-01-16 02:43:00,30.0,25.5,30.20,NE,51,0.0,15.0,83,0.00,,,0.00,Wunderground v.1.15,2013-01-16 07:43:00,
2013-01-16 02:49:00,29.8,25.3,30.20,NE,51,0.0,15.0,83,0.00,,,0.00,Wunderground v.1.15,2013-01-16 07:49:00,
2013-01-16 02:55:00,29.7,25.2,30.20,NE,51,0.0,15.0,83,0.00,,,0.00,Wunderground v.1.15,2013-01-16 07:55:00,
2013-01-16 03:01:00,29.7,25.5,30.20,NE,51,0.0,15.0,84,0.00,,,0.00,Wunderground v.1.15,2013-01-16 08:01:00,
2013-01-16 03:07:00,29.7,25.5,30.18,NE,51,0.0,15.0,84,0.00,,,0.00,Wunderground v.1.15,2013-01-16 08:07:00,
2013-01-16 03:13:00,29.5,25.3,30.17,NE,51,0.0,15.0,84,0.00,,,0.00,Wunderground v.1.15,2013-01-16 08:13:00,
2013-01-16 03:19:00,29.5,25.5,30.17,NE,51,0.0,15.0,85,0.00,,,0.00,Wunderground v.1.15,2013-01-16 08:19:00,
2013-01-16 03:25:00,29.4,25.4,30.17,NE,51,0.0,15.0,85,0.00,,,0.00,Wunderground v.1.15,2013-01-16 08:25:00,
2013-01-16 03:31:00,29.4,25.4,30.17,NE,51,0.0,15.0,85,0.00,,,0.00,Wunderground v.1.15,2013-01-16 08:31:00,
2013-01-16 03:37:00,29.4,25.7,30.15,NE,55,0.0,15.0,86,0.00,,,0.00,Wunderground v.1.15,2013-01-16 08:37:00,
2013-01-16 03:43:00,29.3,25.6,30.15,NNW,341,0.0,15.0,86,0.00,,,0.00,Wunderground v.1.15,2013-01-16 08:43:00,
2013-01-16 03:49:00,29.3,25.6,30.14,NNW,343,0.0,15.0,86,0.00,,,0.00,Wunderground v.1.15,2013-01-16 08:49:00,
2013-01-16 03:54:00,29.1,25.7,30.14,NNW,343,0.0,15.0,87,0.00,,,0.00,Wunderground v.1.15,2013-01-16 08:54:00,
2013-01-16 04:00:00,29.0,25.6,30.13,NNW,343,0.0,15.0,87,0.00,,,0.00,Wunderground v.1.15,2013-01-16 09:00:00,
2013-01-16 04:06:00,29.0,25.6,30.13,NNW,343,0.0,15.0,87,0.00,,,0.00,Wunderground v.1.15,2013-01-16 09:06:00,
2013-01-16 04:12:00,29.0,25.6,30.12,NNW,343,0.0,15.0,87,0.00,,,0.00,Wunderground v.1.15,2013-01-16 09:12:00,
2013-01-16 04:18:00,28.8,25.4,30.12,NNW,343,0.0,15.0,87,0.00,,,0.00,Wunderground v.1.15,2013-01-16 09:18:00,
2013-01-16 04:24:00,28.8,25.4,30.12,NNW,343,0.0,15.0,87,0.00,,,0.00,Wunderground v.1.15,2013-01-16 09:24:00,
2013-01-16 04:30:00,28.8,25.7,30.12,NNW,343,0.0,15.0,88,0.00,,,0.00,Wunderground v.1.15,2013-01-16 09:30:00,
2013-01-16 04:36:00,28.7,25.6,30.12,NNW,343,0.0,15.0,88,0.00,,,0.00,Wunderground v.1.15,2013-01-16 09:36:00,
2013-01-16 04:42:00,28.7,25.6,30.11,NNW,343,0.0,15.0,88,0.00,,,0.00,Wunderground v.1.15,2013-01-16 09:42:00,
2013-01-16 04:47:00,28.7,25.6,30.11,NNW,343,0.0,15.0,88,0.00,,,0.00,Wunderground v.1.15,2013-01-16 09:47:00,
2013-01-16 04:54:00,28.7,25.6,30.10,NNW,343,0.0,15.0,88,0.00,,,0.00,Wunderground v.1.15,2013-01-16 09:54:00,
2013-01-16 04:59:00,28.7,25.6,30.11,NNW,343,0.0,15.0,88,0.00,,,0.00,Wunderground v.1.15,2013-01-16 09:59:00,
2013-01-16 05:05:00,28.7,25.6,30.11,NNW,343,0.0,15.0,88,0.00,,,0.00,Wunderground v.1.15,2013-01-16 10:05:00,
2013-01-16 05:12:00,28.7,25.9,30.11,NNW,343,0.0,15.0,89,0.00,,,0.00,Wunderground v.1.15,2013-01-16 10:12:00,
2013-01-16 05:18:00,28.5,25.7,30.10,NNW,343,0.0,15.0,89,0.00,,,0.00,Wunderground v.1.15,2013-01-16 10:18:00,
2013-01-16 05:23:00,28.5,25.7,30.09,NNW,343,0.0,15.0,89,0.00,,,0.00,Wunderground v.1.15,2013-01-16 10:23:00,
2013-01-16 05:29:00,28.5,25.7,30.09,NNW,343,0.0,15.0,89,0.00,,,0.00,Wunderground v.1.15,2013-01-16 10:29:00,
2013-01-16 05:36:00,28.5,25.7,30.09,NNW,343,0.0,15.0,89,0.00,,,0.00,Wunderground v.1.15,2013-01-16 10:36:00,
2013-01-16 05:41:00,28.5,25.7,30.09,NNW,343,0.0,15.0,89,0.00,,,0.00,Wunderground v.1.15,2013-01-16 10:41:00,
2013-01-16 05:47:00,28.5,25.7,30.10,NNW,343,0.0,15.0,89,0.00,,,0.00,Wunderground v.1.15,2013-01-16 10:47:00,
2013-01-16 05:53:00,28.5,25.7,30.09,NNW,343,0.0,15.0,89,0.00,,,0.00,Wunderground v.1.15,2013-01-16 10:53:00,
2013-01-16 06:00:00,28.5,25.9,30.10,NNW,331,0.0,15.0,90,0.00,,,0.00,Wunderground v.1.15,2013-01-16 11:00:00,
2013-01-16 06:05:00,28.5,25.9,30.10,NNW,331,0.0,15.0,90,0.00,,,0.00,Wunderground v.1.15,2013-01-16 11:05:00,
2013-01-16 06:11:00,28.5,25.9,30.10,NNW,331,0.0,15.0,90,0.00,,,0.00,Wunderground v.1.15,2013-01-16 11:11:00,
2013-01-16 06:17:00,28.5,25.9,30.09,North,351,0.0,15.0,90,0.00,,,0.00,Wunderground v.1.15,2013-01-16 11:17:00,
2013-01-16 06:23:00,28.4,25.8,30.10,NNW,338,0.0,15.0,90,0.00,,,0.00,Wunderground v.1.15,2013-01-16 11:23:00,
2013-01-16 06:29:00,28.4,25.8,30.10,NNW,338,0.0,15.0,90,0.00,,,0.00,Wunderground v.1.15,2013-01-16 11:29:00,
2013-01-16 06:35:00,28.4,25.8,30.10,NNW,338,0.0,15.0,90,0.00,,,0.00,Wunderground v.1.15,2013-01-16 11:35:00,
2013-01-16 06:41:00,28.4,25.8,30.09,NNW,344,0.0,15.0,90,0.00,,,0.00,Wunderground v.1.15,2013-01-16 11:41:00,
2013-01-16 06:47:00,28.4,26.1,30.08,NNW,344,0.0,15.0,91,0.00,,,0.00,Wunderground v.1.15,2013-01-16 11:47:00,
2013-01-16 06:53:00,28.4,26.1,30.08,NNW,344,0.0,15.0,91,0.00,,,0.00,Wunderground v.1.15,2013-01-16 11:53:00,
2013-01-16 06:59:00,28.4,26.1,30.08,NNW,344,0.0,15.0,91,0.00,,,0.00,Wunderground v.1.15,2013-01-16 11:59:00,
2013-01-16 07:05:00,28.4,26.1,30.07,NNW,344,0.0,15.0,91,0.00,,,0.00,Wunderground v.1.15,2013-01-16 12:05:00,
2013-01-16 07:11:00,28.4,26.1,30.07,NNW,344,0.0,15.0,91,0.00,,,0.00,Wunderground v.1.15,2013-01-16 12:11:00,
2013-01-16 07:17:00,28.4,26.1,30.07,NNW,344,0.0,15.0,91,0.00,,,0.00,Wunderground v.1.15,2013-01-16 12:17:00,
2013-01-16 07:23:00,28.4,26.1,30.07,NNW,344,0.0,15.0,91,0.00,,,0.00,Wunderground v.1.15,2013-01-16 12:23:00,
2013-01-16 07:29:00,28.4,26.1,30.07,NNW,344,0.0,15.0,91,0.00,,,0.00,Wunderground v.1.15,2013-01-16 12:29:00,
2013-01-16 07:35:00,28.4,26.1,30.07,NNW,344,0.0,15.0,91,0.00,,,0.00,Wunderground v.1.15,2013-01-16 12:35:00,
2013-01-16 07:41:00,28.4,26.1,30.07,NNW,344,0.0,15.0,91,0.00,,,0.00,Wunderground v.1.15,2013-01-16 12:41:00,
2013-01-16 07:47:00,28.4,26.1,30.07,NNW,344,0.0,15.0,91,0.00,,,0.00,Wunderground v.1.15,2013-01-16 12:47:00,
2013-01-16 07:53:00,28.4,26.1,30.06,NNW,344,0.0,15.0,91,0.00,,,0.00,Wunderground v.1.15,2013-01-16 12:53:00,
2013-01-16 07:59:00,28.4,26.1,30.06,NNW,344,0.0,15.0,91,0.00,,,0.00,Wunderground v.1.15,2013-01-16 12:59:00,
2013-01-16 08:05:00,28.5,26.2,30.05,NNW,344,0.0,15.0,91,0.00,,,0.00,Wunderground v.1.15,2013-01-16 13:05:00,
2013-01-16 08:11:00,28.5,26.2,30.06,NNW,344,0.0,15.0,91,0.00,,,0.00,Wunderground v.1.15,2013-01-16 13:11:00,
2013-01-16 08:17:00,28.5,26.2,30.05,NNW,344,0.0,15.0,91,0.00,,,0.00,Wunderground v.1.15,2013-01-16 13:17:00,
2013-01-16 08:23:00,28.7,26.7,30.05,NNW,344,0.0,15.0,92,0.00,,,0.00,Wunderground v.1.15,2013-01-16 13:23:00,
2013-01-16 08:29:00,28.8,26.8,30.04,NNW,344,0.0,15.0,92,0.00,,,0.00,Wunderground v.1.15,2013-01-16 13:29:00,
2013-01-16 08:35:00,29.0,27.0,30.04,NNW,344,0.0,15.0,92,0.00,,,0.00,Wunderground v.1.15,2013-01-16 13:35:00,
2013-01-16 08:41:00,29.1,27.1,30.04,NNW,344,0.0,15.0,92,0.00,,,0.00,Wunderground v.1.15,2013-01-16 13:41:00,
2013-01-16 08:47:00,29.1,27.1,30.03,NNW,344,0.0,15.0,92,0.00,,,0.00,Wunderground v.1.15,2013-01-16 13:47:00,
2013-01-16 08:53:00,29.1,27.1,30.03,NNW,344,0.0,15.0,92,0.00,,,0.00,Wunderground v.1.15,2013-01-16 13:53:00,
2013-01-16 08:59:00,29.3,27.3,30.01,NNW,344,0.0,15.0,92,0.00,,,0.00,Wunderground v.1.15,2013-01-16 13:59:00,
2013-01-16 09:05:00,29.3,27.3,30.01,NNW,329,0.0,15.0,92,0.00,,,0.00,Wunderground v.1.15,2013-01-16 14:05:00,
2013-01-16 09:11:00,29.4,27.4,30.00,NNW,329,0.0,15.0,92,0.00,,,0.00,Wunderground v.1.15,2013-01-16 14:11:00,
2013-01-16 09:17:00,29.4,27.4,29.99,North,350,0.0,15.0,92,0.00,,,0.00,Wunderground v.1.15,2013-01-16 14:17:00,
2013-01-16 09:23:00,29.5,27.5,29.98,North,350,0.0,15.0,92,0.00,,,0.00,Wunderground v.1.15,2013-01-16 14:23:00,
2013-01-16 09:29:00,29.5,27.5,29.99,North,350,0.0,15.0,92,0.00,,,0.00,Wunderground v.1.15,2013-01-16 14:29:00,
2013-01-16 09:35:00,29.7,27.7,29.98,North,350,0.0,15.0,92,0.00,,,0.00,Wunderground v.1.15,2013-01-16 14:35:00,
2013-01-16 09:41:00,29.7,27.7,29.99,North,350,0.0,15.0,92,0.00,,,0.00,Wunderground v.1.15,2013-01-16 14:41:00,
2013-01-16 09:47:00,29.8,27.8,30.00,NNW,338,0.0,15.0,92,0.00,,,0.00,Wunderground v.1.15,2013-01-16 14:47:00,
2013-01-16 09:53:00,29.8,27.8,29.99,NNW,336,0.0,15.0,92,0.00,,,0.00,Wunderground v.1.15,2013-01-16 14:53:00,
2013-01-16 09:59:00,29.8,27.8,29.97,NW,315,0.0,15.0,92,0.00,,,0.00,Wunderground v.1.15,2013-01-16 14:59:00,
2013-01-16 10:05:00,29.7,27.7,29.98,NNW,328,0.0,15.0,92,0.00,,,0.00,Wunderground v.1.15,2013-01-16 15:05:00,
2013-01-16 10:11:00,29.5,27.5,29.99,NW,309,1.0,15.0,92,0.00,,,0.00,Wunderground v.1.15,2013-01-16 15:11:00,
2013-01-16 10:17:00,29.5,27.5,29.99,NW,312,2.0,15.0,92,0.00,,,0.00,Wunderground v.1.15,2013-01-16 15:17:00,
2013-01-16 10:23:00,29.5,27.5,29.99,NNW,339,1.0,15.0,92,0.00,,,0.00,Wunderground v.1.15,2013-01-16 15:23:00,
2013-01-16 10:29:00,29.5,27.5,29.99,NNW,333,1.0,1.0,92,0.00,,,0.00,Wunderground v.1.15,2013-01-16 15:29:00,
2013-01-16 10:35:00,29.5,27.5,29.98,NNW,333,0.0,15.0,92,0.00,,,0.00,Wunderground v.1.15,2013-01-16 15:35:00,
2013-01-16 10:41:00,29.7,27.7,29.97,NNW,333,0.0,15.0,92,0.00,,,0.00,Wunderground v.1.15,2013-01-16 15:41:00,
2013-01-16 10:47:00,29.7,27.7,29.98,NNW,333,0.0,15.0,92,0.00,,,0.00,Wunderground v.1.15,2013-01-16 15:47:00,
2013-01-16 10:53:00,29.8,27.8,29.99,NNW,333,0.0,15.0,92,0.00,,,0.00,Wunderground v.1.15,2013-01-16 15:53:00,
2013-01-16 10:59:00,30.0,28.2,29.99,NNW,333,0.0,15.0,93,0.00,,,0.00,Wunderground v.1.15,2013-01-16 15:59:00,
2013-01-16 11:05:00,30.1,28.3,29.98,NNW,333,0.0,15.0,93,0.00,,,0.00,Wunderground v.1.15,2013-01-16 16:05:00,
2013-01-16 11:11:00,30.1,28.3,29.98,NW,323,0.0,15.0,93,0.00,,,0.00,Wunderground v.1.15,2013-01-16 16:11:00,
2013-01-16 11:17:00,30.3,28.5,29.98,NNW,333,1.0,15.0,93,0.00,,,0.00,Wunderground v.1.15,2013-01-16 16:17:00,
2013-01-16 11:23:00,30.3,28.5,29.96,NNW,333,0.0,15.0,93,0.00,,,0.00,Wunderground v.1.15,2013-01-16 16:23:00,
2013-01-16 11:29:00,30.3,28.5,29.96,NNW,338,0.0,15.0,93,0.00,,,0.00,Wunderground v.1.15,2013-01-16 16:29:00,
2013-01-16 11:35:00,30.4,28.6,29.97,NNW,338,0.0,15.0,93,0.00,,,0.00,Wunderground v.1.15,2013-01-16 16:35:00,
2013-01-16 11:41:00,30.6,28.8,29.97,NW,321,0.0,15.0,93,0.00,,,0.00,Wunderground v.1.15,2013-01-16 16:41:00,
2013-01-16 11:47:00,30.6,28.8,29.97,NW,321,0.0,15.0,93,0.00,,,0.00,Wunderground v.1.15,2013-01-16 16:47:00,
2013-01-16 11:53:00,30.6,28.8,29.95,NW,321,0.0,15.0,93,0.00,,,0.00,Wunderground v.1.15,2013-01-16 16:53:00,
2013-01-16 11:59:00,30.7,28.9,29.93,NW,321,0.0,15.0,93,0.00,,,0.00,Wunderground v.1.15,2013-01-16 16:59:00,
2013-01-16 12:05:00,30.9,29.1,29.92,NW,321,0.0,15.0,93,0.00,,,0.00,Wunderground v.1.15,2013-01-16 17:05:00,
2013-01-16 12:11:00,30.9,29.1,29.91,WSW,252,0.0,15.0,93,0.00,,,0.00,Wunderground v.1.15,2013-01-16 17:11:00,
2013-01-16 12:17:00,30.9,29.1,29.90,SSW,203,0.0,15.0,93,0.00,,,0.00,Wunderground v.1.15,2013-01-16 17:17:00,
2013-01-16 12:23:00,30.9,29.1,29.93,WSW,258,0.0,15.0,93,0.00,,,0.00,Wunderground v.1.15,2013-01-16 17:23:00,
2013-01-16 12:29:00,31.0,29.2,29.94,WSW,258,0.0,15.0,93,0.00,,,0.00,Wunderground v.1.15,2013-01-16 17:29:00,
2013-01-16 12:35:00,31.0,29.2,29.92,WSW,258,0.0,15.0,93,0.00,,,0.00,Wunderground v.1.15,2013-01-16 17:35:00,
2013-01-16 12:41:00,31.2,29.4,29.91,NNW,329,0.0,15.0,93,0.00,,,0.00,Wunderground v.1.15,2013-01-16 17:41:00,
2013-01-16 12:47:00,31.2,29.4,29.88,NNW,341,0.0,15.0,93,0.00,,,0.00,Wunderground v.1.15,2013-01-16 17:47:00,
2013-01-16 12:53:00,31.0,29.2,29.91,NNW,336,0.0,15.0,93,0.00,,,0.00,Wunderground v.1.15,2013-01-16 17:53:00,
2013-01-16 12:59:00,31.0,29.2,29.87,West,265,0.0,15.0,93,0.00,,,0.00,Wunderground v.1.15,2013-01-16 17:59:00,
2013-01-16 13:05:00,31.0,29.2,29.83,SSW,204,0.0,15.0,93,0.00,,,0.00,Wunderground v.1.15,2013-01-16 18:05:00,
2013-01-16 13:11:00,31.0,29.2,29.85,NNW,330,0.0,15.0,93,0.00,,,0.00,Wunderground v.1.15,2013-01-16 18:11:00,
2013-01-16 13:17:00,31.0,29.2,29.85,NNW,330,0.0,15.0,93,0.00,,,0.00,Wunderground v.1.15,2013-01-16 18:17:00,
2013-01-16 13:23:00,31.0,29.2,29.86,NNW,330,0.0,15.0,93,0.00,,,0.00,Wunderground v.1.15,2013-01-16 18:23:00,
2013-01-16 13:29:00,31.2,29.4,29.87,NNW,330,0.0,15.0,93,0.00,,,0.00,Wunderground v.1.15,2013-01-16 18:29:00,
2013-01-16 13:35:00,31.2,29.4,29.87,NNW,330,0.0,15.0,93,0.00,,,0.00,Wunderground v.1.15,2013-01-16 18:35:00,
2013-01-16 13:41:00,31.2,29.4,29.89,NNW,330,0.0,15.0,93,0.00,,,0.00,Wunderground v.1.15,2013-01-16 18:41:00,
2013-01-16 13:47:00,31.3,29.5,29.88,NNW,330,0.0,15.0,93,0.00,,,0.00,Wunderground v.1.15,2013-01-16 18:47:00,
2013-01-16 13:53:00,31.3,29.5,29.86,NNW,330,0.0,15.0,93,0.00,,,0.00,Wunderground v.1.15,2013-01-16 18:53:00,
2013-01-16 13:59:00,31.3,29.5,29.85,NNW,330,0.0,15.0,93,0.00,,,0.00,Wunderground v.1.15,2013-01-16 18:59:00,
2013-01-16 14:05:00,31.3,29.5,29.88,NNW,330,0.0,15.0,93,0.00,,,0.00,Wunderground v.1.15,2013-01-16 19:05:00,
2013-01-16 14:11:00,31.3,29.5,29.88,NNW,330,0.0,15.0,93,0.00,,,0.00,Wunderground v.1.15,2013-01-16 19:11:00,
2013-01-16 14:17:00,31.3,29.5,29.90,NNW,330,0.0,15.0,93,0.00,,,0.00,Wunderground v.1.15,2013-01-16 19:17:00,
2013-01-16 14:23:00,31.3,29.5,29.90,NNW,330,0.0,15.0,93,0.00,,,0.00,Wunderground v.1.15,2013-01-16 19:23:00,
2013-01-16 14:29:00,31.5,29.7,29.89,NNW,330,0.0,15.0,93,0.00,,,0.00,Wunderground v.1.15,2013-01-16 19:29:00,
2013-01-16 14:35:00,31.5,29.7,29.89,NNW,330,0.0,15.0,93,0.00,,,0.00,Wunderground v.1.15,2013-01-16 19:35:00,
2013-01-16 14:41:00,31.5,29.7,29.88,NNW,330,0.0,15.0,93,0.00,,,0.00,Wunderground v.1.15,2013-01-16 19:41:00,
2013-01-16 14:47:00,31.5,29.7,29.89,NNW,330,0.0,15.0,93,0.00,,,0.00,Wunderground v.1.15,2013-01-16 19:47:00,
2013-01-16 14:53:00,31.5,29.7,29.89,NNW,330,0.0,15.0,93,0.00,,,0.00,Wunderground v.1.15,2013-01-16 19:53:00,
2013-01-16 14:59:00,31.5,29.7,29.88,NNW,330,0.0,15.0,93,0.00,,,0.00,Wunderground v.1.15,2013-01-16 19:59:00,
2013-01-16 15:05:00,31.5,29.7,29.87,NNW,330,0.0,15.0,93,0.00,,,0.00,Wunderground v.1.15,2013-01-16 20:05:00,
2013-01-16 15:11:00,31.5,30.0,29.87,NNW,330,0.0,15.0,94,0.00,,,0.00,Wunderground v.1.15,2013-01-16 20:11:00,
2013-01-16 15:17:00,31.5,29.7,29.87,NNW,330,0.0,15.0,93,0.00,,,0.00,Wunderground v.1.15,2013-01-16 20:17:00,
2013-01-16 15:23:00,31.5,29.7,29.87,NNW,330,0.0,15.0,93,0.00,,,0.00,Wunderground v.1.15,2013-01-16 20:23:00,
2013-01-16 15:29:00,31.5,30.0,29.88,NNW,330,0.0,15.0,94,0.00,,,0.00,Wunderground v.1.15,2013-01-16 20:29:00,
2013-01-16 15:35:00,31.5,30.0,29.88,NNW,330,0.0,15.0,94,0.00,,,0.00,Wunderground v.1.15,2013-01-16 20:35:00,
2013-01-16 15:41:00,31.5,30.0,29.88,NNW,330,0.0,15.0,94,0.00,,,0.00,Wunderground v.1.15,2013-01-16 20:41:00,
2013-01-16 15:47:00,31.5,29.7,29.87,NNW,330,0.0,15.0,93,0.00,,,0.00,Wunderground v.1.15,2013-01-16 20:47:00,
2013-01-16 15:52:00,31.5,30.0,29.87,NNW,330,0.0,15.0,94,0.00,,,0.00,Wunderground v.1.15,2013-01-16 20:52:00,
2013-01-16 15:58:00,31.5,30.0,29.86,NNW,330,0.0,15.0,94,0.00,,,0.00,Wunderground v.1.15,2013-01-16 20:58:00,
2013-01-16 16:04:00,31.5,30.0,29.86,NNW,330,0.0,15.0,94,0.00,,,0.00,Wunderground v.1.15,2013-01-16 21:04:00,
2013-01-16 16:10:00,31.5,30.0,29.87,NNW,330,0.0,15.0,94,0.00,,,0.00,Wunderground v.1.15,2013-01-16 21:10:00,
2013-01-16 16:16:00,31.3,29.8,29.87,NNW,330,0.0,15.0,94,0.00,,,0.00,Wunderground v.1.15,2013-01-16 21:16:00,
2013-01-16 16:22:00,31.3,29.8,29.86,South,178,0.0,15.0,94,0.00,,,0.00,Wunderground v.1.15,2013-01-16 21:22:00,
2013-01-16 16:28:00,31.3,29.8,29.86,South,178,0.0,15.0,94,0.00,,,0.00,Wunderground v.1.15,2013-01-16 21:28:00,
2013-01-16 16:34:00,31.3,29.8,29.86,South,178,0.0,15.0,94,0.00,,,0.00,Wunderground v.1.15,2013-01-16 21:34:00,
2013-01-16 16:40:00,31.2,29.7,29.86,South,178,0.0,15.0,94,0.00,,,0.00,Wunderground v.1.15,2013-01-16 21:40:00,
2013-01-16 16:46:00,31.2,29.7,29.87,South,178,0.0,15.0,94,0.00,,,0.00,Wunderground v.1.15,2013-01-16 21:46:00,
2013-01-16 16:52:00,31.2,29.7,29.86,South,178,0.0,15.0,94,0.00,,,0.00,Wunderground v.1.15,2013-01-16 21:52:00,
2013-01-16 16:57:00,31.2,29.7,29.87,South,178,0.0,15.0,94,0.00,,,0.00,Wunderground v.1.15,2013-01-16 21:57:00,
2013-01-16 17:04:00,31.2,29.7,29.87,South,178,0.0,15.0,94,0.00,,,0.00,Wunderground v.1.15,2013-01-16 22:04:00,
2013-01-16 17:10:00,31.2,29.7,29.87,South,178,0.0,15.0,94,0.00,,,0.00,Wunderground v.1.15,2013-01-16 22:10:00,
2013-01-16 17:16:00,31.2,29.7,29.86,South,178,0.0,15.0,94,0.00,,,0.00,Wunderground v.1.15,2013-01-16 22:16:00,
2013-01-16 17:21:00,31.2,29.7,29.85,South,178,0.0,15.0,94,0.00,,,0.00,Wunderground v.1.15,2013-01-16 22:21:00,
2013-01-16 17:27:00,31.2,29.7,29.86,South,178,0.0,15.0,94,0.00,,,0.00,Wunderground v.1.15,2013-01-16 22:27:00,
2013-01-16 17:34:00,31.0,29.5,29.86,South,178,0.0,15.0,94,0.00,,,0.00,Wunderground v.1.15,2013-01-16 22:34:00,
2013-01-16 17:40:00,31.0,29.5,29.88,South,178,0.0,15.0,94,0.00,,,0.00,Wunderground v.1.15,2013-01-16 22:40:00,
2013-01-16 17:45:00,31.0,29.5,29.87,South,178,0.0,15.0,94,0.00,,,0.00,Wunderground v.1.15,2013-01-16 22:45:00,
2013-01-16 17:51:00,31.0,29.5,29.87,South,178,0.0,15.0,94,0.00,,,0.00,Wunderground v.1.15,2013-01-16 22:51:00,
2013-01-16 17:58:00,31.0,29.5,29.87,South,178,0.0,15.0,94,0.00,,,0.00,Wunderground v.1.15,2013-01-16 22:58:00,
2013-01-16 18:03:00,31.0,29.5,29.87,South,178,0.0,15.0,94,0.00,,,0.00,Wunderground v.1.15,2013-01-16 23:03:00,
2013-01-16 18:09:00,31.0,29.5,29.88,South,178,0.0,15.0,94,0.00,,,0.00,Wunderground v.1.15,2013-01-16 23:09:00,
2013-01-16 18:15:00,31.0,29.5,29.87,South,178,0.0,15.0,94,0.00,,,0.00,Wunderground v.1.15,2013-01-16 23:15:00,
2013-01-16 18:22:00,30.9,29.4,29.86,South,178,0.0,15.0,94,0.00,,,0.00,Wunderground v.1.15,2013-01-16 23:22:00,
2013-01-16 18:27:00,30.9,29.4,29.86,South,178,0.0,15.0,94,0.00,,,0.00,Wunderground v.1.15,2013-01-16 23:27:00,
2013-01-16 18:33:00,30.9,29.4,29.85,South,178,0.0,15.0,94,0.00,,,0.00,Wunderground v.1.15,2013-01-16 23:33:00,
2013-01-16 18:39:00,30.9,29.4,29.87,South,178,0.0,15.0,94,0.00,,,0.00,Wunderground v.1.15,2013-01-16 23:39:00,
2013-01-16 18:46:00,30.7,29.2,29.87,South,178,0.0,15.0,94,0.00,,,0.00,Wunderground v.1.15,2013-01-16 23:46:00,
2013-01-16 18:51:00,30.7,29.2,29.88,South,178,0.0,15.0,94,0.00,,,0.00,Wunderground v.1.15,2013-01-16 23:51:00,
2013-01-16 18:57:00,30.7,29.2,29.88,South,178,0.0,15.0,94,0.00,,,0.00,Wunderground v.1.15,2013-01-16 23:57:00,
2013-01-16 19:03:00,30.6,29.1,29.88,South,178,0.0,15.0,94,0.00,,,0.00,Wunderground v.1.15,2013-01-17 00:03:00,
2013-01-16 19:10:00,30.6,29.1,29.88,South,178,0.0,15.0,94,0.00,,,0.00,Wunderground v.1.15,2013-01-17 00:10:00,
2013-01-16 19:15:00,30.4,28.9,29.88,South,178,0.0,15.0,94,0.00,,,0.00,Wunderground v.1.15,2013-01-17 00:15:00,
2013-01-16 19:21:00,30.4,28.9,29.88,South,178,0.0,15.0,94,0.00,,,0.00,Wunderground v.1.15,2013-01-17 00:21:00,
2013-01-16 19:27:00,30.3,28.8,29.88,SE,144,0.0,15.0,94,0.00,,,0.00,Wunderground v.1.15,2013-01-17 00:27:00,
2013-01-16 19:33:00,30.3,28.8,29.88,SE,144,0.0,15.0,94,0.00,,,0.00,Wunderground v.1.15,2013-01-17 00:33:00,
2013-01-16 19:39:00,30.1,28.6,29.88,SE,144,0.0,15.0,94,0.00,,,0.00,Wunderground v.1.15,2013-01-17 00:39:00,
2013-01-16 19:45:00,30.1,28.6,29.88,SE,144,0.0,15.0,94,0.00,,,0.00,Wunderground v.1.15,2013-01-17 00:45:00,
2013-01-16 19:51:00,30.1,28.6,29.88,SSE,150,0.0,15.0,94,0.00,,,0.00,Wunderground v.1.15,2013-01-17 00:51:00,
2013-01-16 19:58:00,30.1,28.6,29.88,SSE,150,0.0,15.0,94,0.00,,,0.00,Wunderground v.1.15,2013-01-17 00:58:00,
2013-01-16 20:03:00,30.0,28.5,29.88,SSE,150,0.0,15.0,94,0.00,,,0.00,Wunderground v.1.15,2013-01-17 01:03:00,
2013-01-16 20:09:00,30.0,28.5,29.88,SE,133,0.0,15.0,94,0.00,,,0.00,Wunderground v.1.15,2013-01-17 01:09:00,
2013-01-16 20:15:00,30.0,28.5,29.88,SE,133,0.0,15.0,94,0.00,,,0.00,Wunderground v.1.15,2013-01-17 01:15:00,
2013-01-16 20:21:00,30.0,28.5,29.88,SE,133,0.0,15.0,94,0.00,,,0.00,Wunderground v.1.15,2013-01-17 01:21:00,
2013-01-16 20:27:00,30.0,28.5,29.88,SE,133,0.0,15.0,94,0.00,,,0.00,Wunderground v.1.15,2013-01-17 01:27:00,
2013-01-16 20:33:00,29.8,28.3,29.88,SE,133,0.0,15.0,94,0.00,,,0.00,Wunderground v.1.15,2013-01-17 01:33:00,
2013-01-16 20:39:00,29.8,28.3,29.88,SE,130,0.0,15.0,94,0.00,,,0.00,Wunderground v.1.15,2013-01-17 01:39:00,
2013-01-16 20:45:00,29.7,28.2,29.88,SE,130,0.0,15.0,94,0.00,,,0.00,Wunderground v.1.15,2013-01-17 01:45:00,
2013-01-16 20:51:00,29.7,28.2,29.88,SE,130,0.0,15.0,94,0.00,,,0.00,Wunderground v.1.15,2013-01-17 01:51:00,
2013-01-16 20:57:00,29.5,28.0,29.89,SE,130,0.0,15.0,94,0.00,,,0.00,Wunderground v.1.15,2013-01-17 01:57:00,
2013-01-16 21:03:00,29.5,28.0,29.88,SE,130,0.0,15.0,94,0.00,,,0.00,Wunderground v.1.15,2013-01-17 02:03:00,
2013-01-16 21:09:00,29.5,28.0,29.88,SE,130,0.0,15.0,94,0.00,,,0.00,Wunderground v.1.15,2013-01-17 02:09:00,
2013-01-16 21:15:00,29.7,28.2,29.89,SE,130,0.0,15.0,94,0.00,,,0.00,Wunderground v.1.15,2013-01-17 02:15:00,
2013-01-16 21:21:00,29.8,28.3,29.89,SE,130,0.0,15.0,94,0.00,,,0.00,Wunderground v.1.15,2013-01-17 02:21:00,
2013-01-16 21:27:00,30.0,28.5,29.89,SE,128,0.0,15.0,94,0.00,,,0.00,Wunderground v.1.15,2013-01-17 02:27:00,
2013-01-16 21:33:00,30.0,28.5,29.89,SE,128,0.0,15.0,94,0.00,,,0.00,Wunderground v.1.15,2013-01-17 02:33:00,
2013-01-16 21:39:00,30.0,28.5,29.89,SE,128,0.0,15.0,94,0.00,,,0.00,Wunderground v.1.15,2013-01-17 02:39:00,
2013-01-16 21:45:00,30.1,28.6,29.89,SE,128,0.0,15.0,94,0.00,,,0.00,Wunderground v.1.15,2013-01-17 02:45:00,
2013-01-16 21:51:00,30.1,28.6,29.89,SE,128,0.0,15.0,94,0.00,,,0.00,Wunderground v.1.15,2013-01-17 02:51:00,
2013-01-16 21:57:00,30.0,28.5,29.89,SE,128,0.0,15.0,94,0.00,,,0.00,Wunderground v.1.15,2013-01-17 02:57:00,
2013-01-16 22:03:00,30.0,28.5,29.89,SE,128,0.0,15.0,94,0.00,,,0.00,Wunderground v.1.15,2013-01-17 03:03:00,
2013-01-16 22:09:00,30.0,28.5,29.88,SE,128,0.0,15.0,94,0.00,,,0.00,Wunderground v.1.15,2013-01-17 03:09:00,
2013-01-16 22:15:00,30.0,28.5,29.88,SE,128,0.0,15.0,94,0.00,,,0.00,Wunderground v.1.15,2013-01-17 03:15:00,
2013-01-16 22:21:00,30.0,28.5,29.88,SE,128,0.0,15.0,94,0.00,,,0.00,Wunderground v.1.15,2013-01-17 03:21:00,
2013-01-16 22:27:00,30.0,28.5,29.87,SE,128,0.0,15.0,94,0.00,,,0.00,Wunderground v.1.15,2013-01-17 03:27:00,
2013-01-16 22:33:00,30.0,28.5,29.88,SE,128,0.0,15.0,94,0.00,,,0.00,Wunderground v.1.15,2013-01-17 03:33:00,
2013-01-16 22:39:00,30.0,28.5,29.88,SE,127,0.0,15.0,94,0.00,,,0.00,Wunderground v.1.15,2013-01-17 03:39:00,
2013-01-16 22:45:00,30.0,28.5,29.88,SE,127,0.0,15.0,94,0.00,,,0.00,Wunderground v.1.15,2013-01-17 03:45:00,
2013-01-16 22:51:00,29.8,28.3,29.88,SE,127,0.0,15.0,94,0.00,,,0.00,Wunderground v.1.15,2013-01-17 03:51:00,